• Em Portugal
  • Lista de países
  • Para 7 dias
  • Temperatura da água
  • Mapas de satélite
  • Mapa do tempo
  • Widgets de tempo
  • user-avatar
    Iniciar Sessão

    Previsão horária em Zandzhan

    Hoje, 23 Setembro, Sábado

    Tempo Temperatura Precipitação Vento Pressão Humidade
    00:00 +21°C° 0 mm 1 m/s 618 mmHg 27%
    01:00 +20°C° 0 mm 1 m/s 617 mmHg 28%
    02:00 +20°C° 0 mm 1 m/s 617 mmHg 30%
    03:00 +19°C° 0 mm 1 m/s 617 mmHg 31%
    04:00 +19°C° 0 mm 1 m/s 617 mmHg 31%
    05:00 +19°C° 0 mm 1 m/s 617 mmHg 32%
    06:00 +18°C° 0 mm 1 m/s 617 mmHg 33%
    07:00 +20°C° 0 mm 1 m/s 618 mmHg 29%
    08:00 +23°C° 0 mm 2 m/s 619 mmHg 25%
    09:00 +25°C° 0 mm 2 m/s 620 mmHg 21%
    10:00 +26°C° 0 mm 2 m/s 620 mmHg 19%
    11:00 +27°C° 0 mm 2 m/s 621 mmHg 17%
    12:00 +28°C° 0 mm 3 m/s 621 mmHg 15%
    13:00 +29°C° 0 mm 3 m/s 621 mmHg 15%
    14:00 +29°C° 0 mm 3 m/s 621 mmHg 14%
    15:00 +29°C° 0 mm 3 m/s 621 mmHg 14%
    16:00 +28°C° 0 mm 3 m/s 620 mmHg 18%
    17:00 +27°C° 0 mm 4 m/s 620 mmHg 22%
    18:00 +25°C° 0 mm 4 m/s 619 mmHg 26%
    19:00 +23°C° 0 mm 4 m/s 619 mmHg 33%
    20:00 +21°C° 0 mm 3 m/s 619 mmHg 40%
    21:00 +20°C° 0 mm 2 m/s 619 mmHg 47%
    22:00 +19°C° 0 mm 2 m/s 619 mmHg 50%
    23:00 +19°C° 0 mm 2 m/s 619 mmHg 54%

    Amanhã, 24 Setembro, Domingo

    Tempo Temperatura Precipitação Vento Pressão Humidade
    00:00 +18°C° 0 mm 2 m/s 619 mmHg 57%
    01:00 +18°C° 0 mm 2 m/s 619 mmHg 58%
    02:00 +18°C° 0 mm 1 m/s 618 mmHg 60%
    03:00 +16°C° 0 mm 1 m/s 618 mmHg 61%
    04:00 +16°C° 0 mm 1 m/s 618 mmHg 62%
    05:00 +16°C° 0 mm 1 m/s 618 mmHg 62%
    06:00 +15°C° 0 mm 1 m/s 618 mmHg 62%
    07:00 +18°C° 0 mm 2 m/s 619 mmHg 51%
    08:00 +20°C° 0 mm 2 m/s 620 mmHg 40%
    09:00 +23°C° 0 mm 2 m/s 621 mmHg 29%
    10:00 +25°C° 0 mm 3 m/s 621 mmHg 25%
    11:00 +26°C° 0 mm 3 m/s 622 mmHg 21%
    12:00 +28°C° 0 mm 3 m/s 622 mmHg 17%
    13:00 +28°C° 0 mm 3 m/s 622 mmHg 17%
    14:00 +29°C° 0 mm 3 m/s 621 mmHg 17%
    15:00 +29°C° 0 mm 4 m/s 621 mmHg 16%
    16:00 +27°C° 0 mm 4 m/s 621 mmHg 22%
    17:00 +26°C° 0 mm 4 m/s 620 mmHg 29%
    18:00 +23°C° 0 mm 4 m/s 620 mmHg 35%
    19:00 +22°C° 0 mm 3 m/s 620 mmHg 42%
    20:00 +20°C° 0 mm 3 m/s 620 mmHg 49%
    21:00 +19°C° 0 mm 3 m/s 619 mmHg 57%
    22:00 +18°C° 0 mm 2 m/s 619 mmHg 61%
    23:00 +18°C° 0 mm 2 m/s 619 mmHg 66%

    Depois de amanhã, 25 Setembro, Segunda-feira

    Tempo Temperatura Precipitação Vento Pressão Humidade
    00:00 +17°C° 0 mm 2 m/s 619 mmHg 71%
    01:00 +16°C° 0 mm 2 m/s 619 mmHg 74%
    02:00 +16°C° 0 mm 2 m/s 618 mmHg 77%
    03:00 +15°C° 0 mm 1 m/s 618 mmHg 80%
    04:00 +15°C° 0 mm 1 m/s 618 mmHg 81%
    05:00 +14°C° 0 mm 1 m/s 618 mmHg 82%
    06:00 +14°C° 0 mm 1 m/s 618 mmHg 82%
    07:00 +16°C° 0 mm 1 m/s 619 mmHg 70%
    08:00 +19°C° 0 mm 1 m/s 620 mmHg 57%
    09:00 +21°C° 0 mm 1 m/s 621 mmHg 44%
    10:00 +23°C° 0 mm 1 m/s 621 mmHg 37%
    11:00 +24°C° 0 mm 1 m/s 621 mmHg 29%
    12:00 +26°C° 0 mm 1 m/s 621 mmHg 22%
    13:00 +26°C° 0 mm 2 m/s 621 mmHg 21%
    14:00 +27°C° 0 mm 2 m/s 621 mmHg 21%
    15:00 +27°C° 0 mm 2 m/s 621 mmHg 20%
    16:00 +26°C° 0,1 mm 2 m/s 621 mmHg 26%
    17:00 +24°C° 0,1 mm 2 m/s 620 mmHg 32%
    18:00 +22°C° 0,1 mm 3 m/s 620 mmHg 38%
    19:00 +21°C° 0 mm 3 m/s 620 mmHg 46%
    20:00 +20°C° 0 mm 3 m/s 620 mmHg 55%
    21:00 +18°C° 0 mm 3 m/s 620 mmHg 63%
    22:00 +18°C° 0 mm 3 m/s 620 mmHg 67%
    23:00 +17°C° 0 mm 2 m/s 619 mmHg 71%

    26 Setembro, Terça-feira

    Tempo Temperatura Precipitação Vento Pressão Humidade
    00:00 +16°C° 0 mm 2 m/s 619 mmHg 76%
    01:00 +16°C° 0 mm 2 m/s 619 mmHg 78%
    02:00 +15°C° 0 mm 2 m/s 619 mmHg 80%
    03:00 +15°C° 0 mm 2 m/s 619 mmHg 82%
    04:00 +14°C° 0 mm 2 m/s 619 mmHg 83%
    05:00 +14°C° 0 mm 2 m/s 619 mmHg 84%
    06:00 +13°C° 0 mm 2 m/s 619 mmHg 85%
    07:00 +15°C° 0 mm 2 m/s 619 mmHg 76%
    08:00 +16°C° 0 mm 2 m/s 620 mmHg 67%
    09:00 +18°C° 0 mm 2 m/s 620 mmHg 57%
    10:00 +19°C° 0 mm 2 m/s 621 mmHg 50%
    11:00 +21°C° 0 mm 2 m/s 621 mmHg 43%
    12:00 +23°C° 0 mm 2 m/s 621 mmHg 35%
    13:00 +24°C° 0 mm 2 m/s 621 mmHg 33%
    14:00 +25°C° 0 mm 2 m/s 621 mmHg 31%
    15:00 +25°C° 0 mm 2 m/s 621 mmHg 29%
    16:00 +24°C° 0 mm 2 m/s 620 mmHg 34%
    17:00 +22°C° 0 mm 3 m/s 620 mmHg 39%
    18:00 +21°C° 0 mm 3 m/s 620 mmHg 45%
    19:00 +20°C° 0 mm 3 m/s 620 mmHg 51%
    20:00 +19°C° 0 mm 3 m/s 620 mmHg 58%
    21:00 +17°C° 0 mm 2 m/s 620 mmHg 64%
    22:00 +17°C° 0 mm 2 m/s 619 mmHg 67%
    23:00 +16°C° 0 mm 2 m/s 619 mmHg 70%

    27 Setembro, Quarta-feira

    Tempo Temperatura Precipitação Vento Pressão Humidade
    00:00 +15°C° 0 mm 2 m/s 619 mmHg 74%
    01:00 +15°C° 0 mm 2 m/s 619 mmHg 75%
    02:00 +15°C° 0 mm 2 m/s 618 mmHg 77%
    03:00 +14°C° 0 mm 1 m/s 618 mmHg 79%
    04:00 +14°C° 0 mm 1 m/s 618 mmHg 79%
    05:00 +14°C° 0 mm 1 m/s 618 mmHg 79%
    06:00 +13°C° 0 mm 1 m/s 618 mmHg 79%
    07:00 +16°C° 0 mm 2 m/s 619 mmHg 68%
    08:00 +18°C° 0 mm 2 m/s 620 mmHg 56%
    09:00 +20°C° 0 mm 2 m/s 621 mmHg 45%
    10:00 +22°C° 0 mm 3 m/s 621 mmHg 37%
    11:00 +25°C° 0 mm 4 m/s 621 mmHg 29%
    12:00 +27°C° 0 mm 4 m/s 622 mmHg 21%
    13:00 +28°C° 0 mm 5 m/s 621 mmHg 19%
    14:00 +28°C° 0 mm 5 m/s 621 mmHg 18%
    15:00 +29°C° 0 mm 6 m/s 621 mmHg 16%
    16:00 +27°C° 0 mm 5 m/s 621 mmHg 21%
    17:00 +26°C° 0 mm 5 m/s 620 mmHg 26%
    18:00 +23°C° 0 mm 4 m/s 620 mmHg 31%
    19:00 +22°C° 0 mm 3 m/s 620 mmHg 36%
    20:00 +21°C° 0 mm 3 m/s 619 mmHg 40%
    21:00 +19°C° 0 mm 2 m/s 619 mmHg 45%
    22:00 +19°C° 0 mm 2 m/s 619 mmHg 48%
    23:00 +18°C° 0 mm 2 m/s 618 mmHg 51%

    28 Setembro, Quinta-feira

    Tempo Temperatura Precipitação Vento Pressão Humidade
    00:00 +18°C° 0 mm 2 m/s 618 mmHg 54%
    01:00 +17°C° 0 mm 2 m/s 618 mmHg 55%
    02:00 +17°C° 0 mm 2 m/s 617 mmHg 57%
    03:00 +16°C° 0 mm 2 m/s 617 mmHg 59%
    04:00 +16°C° 0 mm 2 m/s 617 mmHg 60%
    05:00 +15°C° 0 mm 2 m/s 617 mmHg 61%
    06:00 +15°C° 0 mm 2 m/s 617 mmHg 62%
    07:00 +17°C° 0 mm 2 m/s 618 mmHg 52%
    08:00 +20°C° 0 mm 2 m/s 619 mmHg 41%
    09:00 +22°C° 0 mm 3 m/s 620 mmHg 31%
    10:00 +25°C° 0 mm 4 m/s 620 mmHg 25%
    11:00 +27°C° 0 mm 6 m/s 621 mmHg 19%
    12:00 +28°C° 0 mm 7 m/s 621 mmHg 14%
    13:00 +28°C° 0 mm 7 m/s 621 mmHg 14%
    14:00 +28°C° 0 mm 8 m/s 620 mmHg 14%
    15:00 +28°C° 0 mm 8 m/s 620 mmHg 14%
    16:00 +26°C° 0 mm 7 m/s 620 mmHg 21%
    17:00 +23°C° 0 mm 6 m/s 620 mmHg 28%
    18:00 +20°C° 0 mm 5 m/s 619 mmHg 35%
    19:00 +19°C° 0 mm 4 m/s 619 mmHg 42%
    20:00 +18°C° 0 mm 4 m/s 619 mmHg 49%
    21:00 +16°C° 0 mm 3 m/s 619 mmHg 56%
    22:00 +14°C° 0 mm 3 m/s 619 mmHg 61%
    23:00 +14°C° 0 mm 3 m/s 619 mmHg 67%
    Mostrar mais